星链-2748 (STARLINK-2748 )

导读

STARLINK-2748是美国太空探索技术公司SpaceX于2021年5月26日发射的星链项目卫星。作为星链卫星互联网组网计划的一部分,它运行在近地轨道,旨在为全球提供高速宽带互联网接入服务,填补偏远地区网络覆盖空白。星链计划最终计划部署超过四万两千颗卫星,STARLINK-2748是该大规模星座组网进程中的重要组成单元。

基本信息
目录编号:
48694
目录名称:
STARLINK-2748
国际标识:
2021-044BJ
轨道中心:
EARTH
卫星名称:
星链-2748
卫星全名:
星链-2748 (STARLINK-2748 )
卫星状态:
在轨 (已飞行1849 天)
发射日期:
2021-05-26 UTC
国别 :
美国 (US)
星等 :
--
轨道信息
数据来源 国际轨道数据 AOE轨道数据
星历时间 2026-06-18T01:34:17+0800
21小时前
查看轨道信息
2026-06-13T08:00:00+0800
5天前
查看轨道信息
半长轴 6848.858km 6848.875km
偏心率 0.0001066 0.0000717
轨道倾角 53.160° 53.158°
近地点辐角 85.384° 90.923°
升交点赤经 333.073° 355.108°
平近点角 274.728° 81.028°
近地点 469.99km 470.246km
远地点 471.452km 471.23km
周期 94.013分钟 94.013分钟
每日圈数 15.317067 15.31701
详细信息
固有亮度:
5
最大亮度:
2.5
卫星平台:
Starlink v1.5
覆盖范围:
全球
运营商:
太空探索技术公司
运营商所在国:
美国
制造商(研发单位):
太空探索技术公司
制造商所在国:
美国
使用方式:
暂无
卫星简介
星链(Starlink)计划是由太空探索技术公司(SpaceX)提出的一个巨型低轨卫星互联网星座项目,计划在2019年至2024年间在太空搭建由约1.2万颗卫星组成的“星链”网络,其中1584颗将部署在地球上空550千米处的近地轨道,并从2020年开始工作。该卫星仍在工作。
2D轨道图
3D轨道图
轨道高度分析图
轨道倾角分析图
轨道综合分析图
查看轨道综合分析图